sat.trackr.live / text

‹ back to catalog

STARLINK-3752

NORAD 52312 · 2022-041BD

PAYLOAD ACTIVE UNKNOWN

§ Identity

Operator
Country
US
Launch date
2022-04-21
Launch site
AFETR
Launch vehicle
Mass (kg)
RCS (m²)

Purposes: comms

External: N2YO · Heavens-Above · Gunter

§ Orbital elements

Epoch: 2026-09-20T02:07:21.082080Z

Period
93.85 min
Inclination
53.1598°
Eccentricity
0.0001165
Mean motion
15.34395079 rev/d
Perigee alt
461.9 km
Apogee alt
463.5 km
Semi-major
6,840.9 km
B*
4.2378e-5
RAAN
283.3000°
Arg perigee
80.8551°
Mean anomaly
279.2583°
Rev number
24,539

§ Raw data

STARLINK-37521 52312U 22041BD  26263.08843845  .00001056  00000+0  42378-4 0  99902 52312  53.1598 283.3000 0001165  80.8551 279.2583 15.34395079245397

JSON: /api/v1/satellites/52312 · /tle

For live sub-satellite position, see the globe view (requires WebGL).

§ Visibility from observer

Set your observer location to see the next 7 days of passes ≥ 10°. The values pass through the URL so the page stays shareable.

No JS? Fill the form by hand. The geolocation button needs JavaScript.